Weather in Kurdzhipskaya

Russia / Republic of Adygea     44°27′23″N   40°03′00″E
temp.,
°C
wind,
m/s
gust,
m/s
humid.,
%
clouds,
%
prec.,
mm/h
press.,
hPa
HPBL,
m
19 april, mon
mon1900:00+11w0197100 0.4 101510
03:00+10nne1198100 0.6 101518
06:00+11e1199100 3.5 101540
09:00+15nw1192100 5.5 1014186
12:00+15wsw31189100 1.1 1013535
15:00+15w3108574 1.3 1013447
18:00+15nnw2488100 0.1 1013305
21:00+13ene269899 0.3 1013223
20 april, tue
tue2000:00+12ese1398100 0.0 100980
03:00+12n2699100 0.0 1008298
06:00+12e1298100 0.0 1004113
09:00+16wnw3582100 0.0 1003415
12:00+22w68535 0.0 1004983
15:00+18w913546 0.0 10071098
18:00+13sw8165163 0.0 10101199
21:00+11sw41362100 0.0 1013703
21 april, wed
wed2100:00+10wnw2577100 0.0 1015263
03:00+9nne018274 0.0 101551
06:00+7ne1394100 0.0 1017140
09:00+11ene2277100 0.0 1018676
12:00+13e2368100 0.1 1018879
15:00+15w136754 1.2 1018928
18:00+13wnw257130 0.5 1019249
21:00+8s118320 0.5 102110
22 april, thu
thu2200:00+7sse0184100 0.0 102110
03:00+6nnw0084100 0.0 102110
06:00+6se118729 0.0 102211
09:00+13ne115935 0.0 1022597
12:00+16n235232 0.2 10211628
15:00+15nne227544 2.9 1021624
18:00+13n11874 3.1 102253
21:00+8s11943 4.4 102411
23 april, fri
fri2300:00+7ssw11963 0.0 102411
03:00+6s11964 0.0 102412
06:00+6s11960 0.0 102412
09:00+13nne11780 0.0 1023488
12:00+17nnw23496 0.0 10221788
15:00+18nne334837 0.1 10211617
18:00+15ne25685 0.1 1021217
21:00+10ese21863 0.1 102113